Fort Sill, OK

7:29 PM CST on January 19, 2018 (GMT -0600)
Post Army Air Field

Weather History for KFSI - November, 2012

Change the Weather History Date:

Sunday, November 18, 2012

  Actual Average Record
Temperature  
Mean Temperature 56 °F -  
Max Temperature 67 °F 60 °F 80 °F (1981)
Min Temperature 45 °F 37 °F 16 °F (1951)
Degree Days  
Heating Degree Days 9    
Growing Degree Days 6 (Base 50)    
Moisture  
Dew Point 38 °F    
Average Humidity 50    
Maximum Humidity 63    
Minimum Humidity 38    
Precipitation  
Precipitation 0.00 in - - ()
Sea Level Pressure  
Sea Level Pressure 30.15 in    
Wind  
Wind Speed 11 mph (SSE)    
Max Wind Speed 21 mph    
Max Gust Speed 29 mph    
Visibility 10 miles    
Events Rain    
Averages and records for this station are not official NWS values.
T = Trace of Precipitation, MM = Missing Value Source: NWS Daily Summary

Daily Weather History Graph

Daily Weather History Graph

Search for Another Location

Airport or City:

Trip Planner

Search our weather history database for the weather conditions in past years. The results will help you decide how hot, cold, wet, or windy it might be!

Date:

Astronomy

Nov. 18, 2012 Rise Set
Actual Time 7:10 AM CST 5:26 PM CST
Civil Twilight 6:43 AM CST 5:53 PM CST
Nautical Twilight 6:13 AM CST 6:24 PM CST
Astronomical Twilight 5:43 AM CST 6:54 PM CST
Moon 11:41 AM CST (11/18) 10:44 PM CST (11/18)
Length of Visible Light 11h 09m
Length of Day
10h 15m
Waxing Crescent, 30% of the Moon is Illuminated
Nov 18
Waxing Crescent
Nov 20
First Quarter
Nov 28
Full
Dec 6
Last Quarter
Dec 13
New

Hourly Weather History & Observations

Time (CST) Temp. Windchill Dew Point Humidity Pressure Visibility Wind Dir Wind Speed Gust Speed Precip Events Conditions
12:55 AM 46.4 °F 43.5 °F 31.6 °F 56% 30.22 in 10.0 mi SSE 5.8 mph - N/A   Partly Cloudy
1:55 AM 45.9 °F 42.9 °F 31.6 °F 58% 30.21 in 10.0 mi SE 5.8 mph - N/A   Partly Cloudy
2:55 AM 45.7 °F 42.0 °F 31.8 °F 58% 30.20 in 10.0 mi SSE 6.9 mph - N/A   Mostly Cloudy
3:55 AM 48.2 °F - 32.4 °F 54% 30.19 in 10.0 mi SSE 9.2 mph - N/A   Overcast
4:55 AM 49.8 °F - 32.5 °F 51% 30.18 in 10.0 mi SSE 12.7 mph - N/A   Overcast
5:55 AM 51.1 °F - 32.7 °F 50% 30.19 in 10.0 mi South 11.5 mph - N/A   Overcast
6:55 AM 51.8 °F - 32.4 °F 48% 30.19 in 10.0 mi South 12.7 mph - N/A   Overcast
7:55 AM 52.0 °F - 32.9 °F 48% 30.21 in 10.0 mi South 12.7 mph - N/A   Overcast
8:55 AM 52.5 °F - 34.0 °F 49% 30.21 in 10.0 mi South 13.8 mph - N/A   Overcast
9:55 AM 57.4 °F - 34.7 °F 43% 30.19 in 10.0 mi South 13.8 mph 21.9 mph N/A   Overcast
10:55 AM 62.1 °F - 37.8 °F 41% 30.18 in 10.0 mi South 20.7 mph 26.5 mph N/A   Overcast
11:55 AM 65.7 °F - 40.6 °F 40% 30.17 in 10.0 mi South 20.7 mph 27.6 mph N/A   Overcast
12:55 PM 66.4 °F - 41.7 °F 41% 30.12 in 10.0 mi South 19.6 mph 28.8 mph N/A   Overcast
1:55 PM 67.3 °F - 40.8 °F 38% 30.09 in 10.0 mi South 19.6 mph 25.3 mph N/A   Overcast
2:55 PM 66.7 °F - 41.2 °F 39% 30.09 in 10.0 mi South 18.4 mph 26.5 mph N/A   Overcast
3:55 PM 66.6 °F - 39.9 °F 38% 30.10 in 10.0 mi South 17.3 mph 25.3 mph N/A   Scattered Clouds
4:55 PM 64.8 °F - 38.3 °F 38% 30.10 in 10.0 mi SSE 12.7 mph - N/A   Scattered Clouds
5:55 PM 61.2 °F - 37.4 °F 41% 30.11 in 10.0 mi SSE 13.8 mph 23.0 mph N/A   Mostly Cloudy
6:55 PM 60.3 °F - 37.4 °F 43% 30.12 in 10.0 mi SSE 12.7 mph - N/A   Mostly Cloudy
7:22 PM 60.8 °F - 37.4 °F 42% 30.13 in 10.0 mi SSE 16.1 mph - N/A Rain Light Rain
7:43 PM 57.2 °F - 42.8 °F 59% 30.12 in 10.0 mi SSE 11.5 mph - N/A   Mostly Cloudy
7:55 PM 56.8 °F - 42.8 °F 59% 30.12 in 10.0 mi SSE 13.8 mph - 0.00 in   Mostly Cloudy
8:52 PM 57.2 °F - 42.8 °F 59% 30.14 in 10.0 mi SSE 10.4 mph - N/A Rain Light Rain
8:55 PM 56.1 °F - 43.0 °F 61% 30.14 in 10.0 mi SSE 10.4 mph - 0.00 in Rain Light Rain
9:01 PM 55.4 °F - 42.8 °F 63% 30.13 in 10.0 mi SSE 13.8 mph - N/A   Mostly Cloudy
9:55 PM 56.5 °F - 42.3 °F 59% 30.12 in 10.0 mi SSE 12.7 mph - 0.00 in   Overcast
10:55 PM 55.0 °F - 41.7 °F 61% 30.12 in 10.0 mi South 10.4 mph - N/A   Scattered Clouds
11:55 PM 55.8 °F - 41.0 °F 58% 30.11 in 10.0 mi South 9.2 mph - N/A   Overcast